Regional Weather Roundup
Issued by NWS Jackson, KY

Home | Current Version | Previous Version | Graphics & Text | Print | Product List | Glossary On
Versions: 1 2 3 4 5 6 7 8 9 10 11 12 13 14 15 16 17 18 19 20 21 22 23 24 25 26 27 28 29 30 31 32 33 34 35 36 37 38 39 40 41 42 43 44 45 46 47 48 49 50
000
ASUS43 KJKL 110510
RWRJKL

EAST KENTUCKY HOURLY WEATHER ROUNDUP
NATIONAL WEATHER SERVICE JACKSON KY
100 AM EDT FRI JUL 11 2014

NOTE: "FAIR" INDICATES FEW OR NO CLOUDS BELOW 12,000 FEET WITH
NO SIGNIFICANT WEATHER AND/OR OBSTRUCTIONS TO VISIBILITY.

* THESE REPORTS ARE NOT UNDER NWS QUALITY CONTROL AND MAY NOT
  REPORT WEATHER SUCH AS PRECIPITATION AND FOG.

KYZ079-080-083-085-087-088-110-112-115-119-120-110600
...EASTERN KENTUCKY...

CITY           SKY/WX    TMP DP  RH WIND       PRES   REMARKS
JACKSON        CLEAR     71  61  70 CALM      30.17R
LONDON         CLEAR     71  62  73 CALM      30.17R
SOMERSET*      CLEAR     68  61  77 CALM      30.17R
MONTICELLO*    CLEAR     64  63  97 CALM      30.18R FOG
WILLIAMSBURG*    N/A     66  66 100 CALM      30.17R
MIDDLESBORO*   CLEAR     65  63  95 CALM      30.17S
HARLAN APT*    PTCLDY    63  63 100 MISG      30.18S
BLACK MTN*       N/A     63  57  82 W1          N/A
PIKEVILLE APT* CLEAR     72  63  73 CALM      30.18R
BIG SANDY*     CLEAR     67  64  87 CALM      30.16S
MOREHEAD APT*    N/A     70  59  68 CALM      30.18S
$$

KYZ035-036-041-042-044-050-067-078-099-110600
...CENTRAL KENTUCKY...

CITY           SKY/WX    TMP DP  RH WIND       PRES   REMARKS
MT STERLING*   CLEAR     63  61  94 CALM      30.18R
FLEMING/MASON* CLEAR     68  59  73 CALM      30.17S
DANVILLE*      CLEAR     63  59  88 CALM      30.18R
RICHMOND*      CLEAR     66  61  82 CALM      30.15S
LEXINGTON      CLEAR     66  60  81 CALM      30.17R
FRANKFORT      CLEAR     62  58  86 CALM      30.16R
$$

KYZ091>093-OHZ055-061-077-WVZ005-015-034-035-042-110600
...SOUTHERN OHIO/WEST VIRGINIA...

CITY           SKY/WX    TMP DP  RH WIND       PRES   REMARKS
COVINGTON      PTCLDY    70  54  56 NE5       30.18R
COLUMBUS       PTCLDY    69  58  67 NE3       30.16S
DAYTON         CLEAR     66  54  65 NE5       30.20R
WILMINGTON     CLEAR     64  57  78 N3        30.18R
HUNTINGTON     CLEAR     66  63  90 CALM      30.14F
CHARLESTON     PTCLDY    66  66 100 CALM      30.14F FOG
PINEVILLE*     CLEAR     64  64 100 MISG      30.24R FOG
BECKLEY        CLEAR     63  59  87 CALM      30.22S
BLUEFIELD      CLEAR     66  58  75 W5        30.24S
$$

VAZ002-007-008-TNZ017-027-036-066-071-110600
...SOUTHWEST VIRGINIA/EAST TENNESSEE...

CITY           SKY/WX    TMP DP  RH WIND       PRES   REMARKS
WISE*          PTCLDY    63  55  77 CALM      30.24S
JONESVILLE*      N/A     64  64 100 CALM      30.19R
ABINGDON*      CLEAR     67  64  88 CALM      30.20R
BRISTOL        PTCLDY    67  63  87 N3        30.17R
KNOXVILLE      CLOUDY    70  66  87 NE3       30.12S
OAK RIDGE      PTCLDY    70  68  93 CALM      30.14F
CROSSVILLE     CLOUDY    66  62  87 CALM      30.19S
NASHVILLE      MOCLDY    76  63  64 N7        30.14R
$$

...KEY TO REMARKS...
VSB - VISIBILITY IN MILES
WCI - WIND CHILL INDEX
HX  - HEAT INDEX

$$



USA.gov is the U.S. government's official web portal to all federal, state and local government web resources and services.